User: anonymous   Login
Location: Unspecified
(0.0000°N, 0.0000°E)
Time: 23:59:08
(UTC+00:00)
Language:

AO-Echo - Orbit

View from above orbital plane
View from above orbital plane
View from above satellite
View from above satellite

Ground track
Ground track

The orbit data is extracted from the following two-line orbital elements,

1 28375U 04025K   17322.76968880 +.00000029 +00000-0 +21789-4 0  9995
2 28375 098.3690 253.0764 0082537 176.5471 183.6306 14.41863449704030
Epoch (UTC): 18 November 2017 18:28:21
Eccentricity: 0.0082537
inclination: 98.3690°
perigee height: 693 km
apogee height: 811 km
right ascension of ascending node: 253.0764°
argument of perigee: 176.5471°
revolutions per day: 14.41863449
mean anomaly at epoch: 183.6306°
orbit number at epoch: 70403

The dashed part of the orbit path shows where the satellite is in the earth's shadow,  

DLR